Time,TemperatureF,DewpointF,PressureIn,WindDirection,WindDirectionDegrees,WindSpeedMPH,WindSpeedGustMPH,Humidity,HourlyPrecipIn,Conditions,Clouds,dailyrainin,SoftwareType,DateUTC
2013-07-17 00:01:00,59.0,51.0,30.04,WNW,288,1.0,4.0,76,0.00,,,0.00,,2013-07-17 07:01:00,
2013-07-17 00:11:00,59.0,51.0,30.04,NW,318,1.0,6.0,76,0.00,,,0.00,,2013-07-17 07:11:00,
2013-07-17 00:42:00,58.0,51.0,30.06,NW,318,1.0,3.0,77,0.00,,,0.00,,2013-07-17 07:42:00,
2013-07-17 00:52:00,58.0,51.0,30.06,WNW,298,1.0,3.0,77,0.00,,,0.00,,2013-07-17 07:52:00,
2013-07-17 01:01:00,59.0,51.0,30.06,WNW,293,1.0,3.0,76,0.00,,,0.00,,2013-07-17 08:01:00,
2013-07-17 01:11:00,59.0,51.0,30.06,WNW,296,1.0,3.0,76,0.00,,,0.00,,2013-07-17 08:11:00,
2013-07-17 01:21:00,59.0,51.0,30.06,NNW,328,0.0,3.0,75,0.00,,,0.00,,2013-07-17 08:21:00,
2013-07-17 01:42:00,59.0,51.0,30.08,WNW,289,1.0,3.0,75,0.00,,,0.00,,2013-07-17 08:42:00,
2013-07-17 01:52:00,59.0,51.0,30.08,North,1,0.0,2.0,74,0.00,,,0.00,,2013-07-17 08:52:00,
2013-07-17 02:01:00,59.0,51.0,30.08,WNW,299,2.0,4.0,74,0.00,,,0.00,,2013-07-17 09:01:00,
2013-07-17 02:11:00,59.0,51.0,30.09,SW,234,0.0,5.0,74,0.00,,,0.00,,2013-07-17 09:11:00,
2013-07-17 02:32:00,58.0,51.0,30.09,West,268,1.0,5.0,78,0.00,,,0.00,,2013-07-17 09:32:00,
2013-07-17 02:43:00,58.0,52.0,30.09,ESE,106,0.0,1.0,80,0.00,,,0.00,,2013-07-17 09:43:00,
2013-07-17 02:52:00,57.0,51.0,30.09,ESE,118,0.0,0.0,81,0.00,,,0.00,,2013-07-17 09:52:00,
2013-07-17 03:01:00,57.0,52.0,30.09,NNW,329,0.0,0.0,82,0.00,,,0.00,,2013-07-17 10:01:00,
2013-07-17 03:11:00,57.0,52.0,30.09,WSW,243,0.0,0.0,82,0.00,,,0.00,,2013-07-17 10:11:00,
2013-07-17 03:32:00,57.0,52.0,30.09,SSW,202,0.0,2.0,82,0.00,,,0.00,,2013-07-17 10:32:00,
2013-07-17 03:43:00,57.0,52.0,30.09,West,269,0.0,1.0,82,0.00,,,0.00,,2013-07-17 10:43:00,
2013-07-17 03:52:00,57.0,52.0,30.09,SW,224,0.0,3.0,82,0.00,,,0.00,,2013-07-17 10:52:00,
2013-07-17 04:01:00,57.0,52.0,30.09,SW,231,1.0,2.0,82,0.00,,,0.00,,2013-07-17 11:01:00,
2013-07-17 04:11:00,57.0,52.0,30.11,SSW,206,1.0,2.0,82,0.00,,,0.00,,2013-07-17 11:11:00,
2013-07-17 04:22:00,57.0,51.0,30.11,WSW,257,1.0,3.0,81,0.00,,,0.00,,2013-07-17 11:22:00,
2013-07-17 04:52:00,57.0,52.0,30.11,SW,216,1.0,1.0,82,0.00,,,0.00,,2013-07-17 11:52:00,
2013-07-17 05:01:00,57.0,51.0,30.11,SSW,208,2.0,4.0,81,0.00,,,0.00,,2013-07-17 12:01:00,
2013-07-17 05:11:00,57.0,51.0,30.11,SSW,200,0.0,4.0,81,0.00,,,0.00,,2013-07-17 12:11:00,
2013-07-17 05:32:00,57.0,51.0,30.11,SW,217,0.0,3.0,81,0.00,,,0.00,,2013-07-17 12:32:00,
2013-07-17 05:42:00,57.0,51.0,30.11,South,189,0.0,3.0,81,0.00,,,0.00,,2013-07-17 12:42:00,
2013-07-17 05:53:00,57.0,51.0,30.11,SSW,192,0.0,3.0,80,0.00,,,0.00,,2013-07-17 12:53:00,
2013-07-17 06:32:00,57.0,51.0,30.12,East,81,0.0,1.0,81,0.00,,,0.00,,2013-07-17 13:32:00,
2013-07-17 06:52:00,58.0,52.0,30.12,SE,134,1.0,2.0,80,0.00,,,0.00,,2013-07-17 13:52:00,
2013-07-17 07:02:00,57.0,51.0,30.12,SE,134,0.0,2.0,81,0.00,,,0.00,,2013-07-17 14:02:00,
2013-07-17 07:43:00,59.0,52.0,30.14,West,259,0.0,3.0,79,0.00,,,0.00,,2013-07-17 14:43:00,
2013-07-17 07:52:00,59.0,52.0,30.14,West,268,1.0,2.0,77,0.00,,,0.00,,2013-07-17 14:52:00,
2013-07-17 08:01:00,59.0,52.0,30.16,WSW,247,1.0,5.0,77,0.00,,,0.00,,2013-07-17 15:01:00,
2013-07-17 08:12:00,59.0,51.0,30.16,SW,236,1.0,2.0,75,0.00,,,0.00,,2013-07-17 15:12:00,
2013-07-17 08:21:00,59.0,51.0,30.16,East,99,0.0,1.0,74,0.00,,,0.00,,2013-07-17 15:21:00,
2013-07-17 08:32:00,60.0,52.0,30.16,NW,322,0.0,1.0,74,0.00,,,0.00,,2013-07-17 15:32:00,
2013-07-17 08:42:00,60.0,51.0,30.16,NNW,328,0.0,2.0,73,0.00,,,0.00,,2013-07-17 15:42:00,
2013-07-17 08:52:00,61.0,52.0,30.16,SSW,198,0.0,2.0,73,0.00,,,0.00,,2013-07-17 15:52:00,
2013-07-17 09:01:00,61.0,52.0,30.16,SW,222,1.0,2.0,71,0.00,,,0.00,,2013-07-17 16:01:00,
2013-07-17 09:32:00,62.0,52.0,30.16,West,269,2.0,5.0,69,0.00,,,0.00,,2013-07-17 16:32:00,
2013-07-17 09:42:00,62.0,52.0,30.16,WNW,300,2.0,5.0,69,0.00,,,0.00,,2013-07-17 16:42:00,
2013-07-17 09:52:00,62.0,51.0,30.16,WNW,287,2.0,4.0,68,0.00,,,0.00,,2013-07-17 16:52:00,
2013-07-17 10:01:00,63.0,52.0,30.16,WNW,301,2.0,4.0,67,0.00,,,0.00,,2013-07-17 17:01:00,
2013-07-17 10:11:00,63.0,51.0,30.16,NW,312,2.0,4.0,66,0.00,,,0.00,,2013-07-17 17:11:00,
2013-07-17 10:21:00,64.0,52.0,30.16,NNE,16,1.0,3.0,65,0.00,,,0.00,,2013-07-17 17:21:00,
2013-07-17 10:52:00,64.0,51.0,30.17,SSE,148,0.0,3.0,63,0.00,,,0.00,,2013-07-17 17:52:00,
2013-07-17 11:01:00,64.0,53.0,30.17,NW,314,2.0,6.0,67,0.00,,,0.00,,2013-07-17 18:01:00,
2013-07-17 11:11:00,64.0,53.0,30.17,NW,306,2.0,6.0,67,0.00,,,0.00,,2013-07-17 18:11:00,
2013-07-17 11:22:00,65.0,53.0,30.17,West,280,3.0,6.0,66,0.00,,,0.00,,2013-07-17 18:22:00,
2013-07-17 11:52:00,67.0,53.0,30.17,NW,323,3.0,5.0,61,0.00,,,0.00,,2013-07-17 18:52:00,
2013-07-17 12:43:00,71.0,54.0,30.17,North,4,3.0,6.0,56,0.00,,,0.00,,2013-07-17 19:43:00,
2013-07-17 12:53:00,72.0,55.0,30.17,WNW,287,4.0,6.0,55,0.00,,,0.00,,2013-07-17 19:53:00,
2013-07-17 13:01:00,73.0,54.0,30.17,NW,304,1.0,5.0,52,0.00,,,0.00,,2013-07-17 20:01:00,
2013-07-17 13:11:00,73.0,55.0,30.17,North,350,4.0,8.0,53,0.00,,,0.00,,2013-07-17 20:11:00,
2013-07-17 13:33:00,73.0,55.0,30.17,West,271,2.0,6.0,53,0.00,,,0.00,,2013-07-17 20:33:00,
2013-07-17 13:43:00,75.0,55.0,30.17,WSW,239,3.0,5.0,49,0.00,,,0.00,,2013-07-17 20:43:00,
2013-07-17 13:52:00,74.0,54.0,30.17,NW,306,3.0,7.0,50,0.00,,,0.00,,2013-07-17 20:52:00,
2013-07-17 14:01:00,75.0,55.0,30.16,West,275,2.0,7.0,50,0.00,,,0.00,,2013-07-17 21:01:00,
2013-07-17 14:31:00,78.0,56.0,30.16,West,262,2.0,7.0,47,0.00,,,0.00,,2013-07-17 21:31:00,
2013-07-17 14:42:00,78.0,56.0,30.16,NW,309,2.0,8.0,47,0.00,,,0.00,,2013-07-17 21:42:00,
2013-07-17 15:01:00,80.0,56.0,30.16,WNW,300,3.0,9.0,44,0.00,,,0.00,,2013-07-17 22:01:00,
2013-07-17 15:11:00,80.0,55.0,30.16,West,275,3.0,7.0,43,0.00,,,0.00,,2013-07-17 22:11:00,
2013-07-17 15:43:00,82.0,56.0,30.16,WNW,299,3.0,9.0,41,0.00,,,0.00,,2013-07-17 22:43:00,
2013-07-17 15:53:00,81.0,56.0,30.14,NW,304,3.0,7.0,43,0.00,,,0.00,,2013-07-17 22:53:00,
2013-07-17 16:01:00,82.0,55.0,30.14,West,271,2.0,5.0,40,0.00,,,0.00,,2013-07-17 23:01:00,
2013-07-17 16:11:00,82.0,55.0,30.14,WNW,303,2.0,6.0,40,0.00,,,0.00,,2013-07-17 23:11:00,
2013-07-17 16:42:00,83.0,55.0,30.14,West,272,2.0,7.0,38,0.00,,,0.00,,2013-07-17 23:42:00,
2013-07-17 16:52:00,82.0,55.0,30.14,West,272,3.0,7.0,40,0.00,,,0.00,,2013-07-17 23:52:00,
2013-07-17 18:01:00,82.0,55.0,30.12,West,270,3.0,8.0,39,0.00,,,0.00,,2013-07-18 01:01:00,
2013-07-17 18:11:00,82.0,55.0,30.12,WNW,283,3.0,9.0,40,0.00,,,0.00,,2013-07-18 01:11:00,
2013-07-17 18:32:00,82.0,55.0,30.12,NW,325,3.0,9.0,39,0.00,,,0.00,,2013-07-18 01:32:00,
2013-07-17 18:42:00,81.0,54.0,30.12,WNW,301,3.0,9.0,40,0.00,,,0.00,,2013-07-18 01:42:00,
2013-07-17 18:53:00,82.0,54.0,30.12,NW,305,2.0,7.0,38,0.00,,,0.00,,2013-07-18 01:53:00,
2013-07-17 19:01:00,81.0,54.0,30.12,WNW,287,6.0,9.0,40,0.00,,,0.00,,2013-07-18 02:01:00,
2013-07-17 19:11:00,80.0,54.0,30.12,West,266,4.0,9.0,41,0.00,,,0.00,,2013-07-18 02:11:00,
2013-07-17 19:32:00,80.0,53.0,30.12,WNW,293,3.0,8.0,40,0.00,,,0.00,,2013-07-18 02:32:00,
2013-07-17 19:52:00,79.0,53.0,30.12,NW,315,1.0,4.0,41,0.00,,,0.00,,2013-07-18 02:52:00,
2013-07-17 20:01:00,78.0,52.0,30.14,NW,316,1.0,4.0,41,0.00,,,0.00,,2013-07-18 03:01:00,
2013-07-17 20:22:00,73.0,53.0,30.14,NW,317,0.0,2.0,50,0.00,,,0.00,,2013-07-18 03:22:00,
2013-07-17 23:43:00,54.0,50.0,30.17,North,6,0.0,0.0,86,0.00,,,0.00,,2013-07-18 06:43:00,
2013-07-17 23:52:00,54.0,50.0,30.17,SSE,161,0.0,0.0,85,0.00,,,0.00,,2013-07-18 06:52:00,